DELTA 2 R/B - Orbit

View from above orbital plane
View from above orbital plane
View from above satellite
View from above satellite

Ground track
Ground track

The orbit data is extracted from the following two-line orbital elements,

1 27644U 03002C   13137.62494591  .00055181  00000-0  14371-2 0   644
2 27644 093.9740 349.6995 0008767 131.3062 290.6981 15.38646895569365
Epoch (UTC): 17 May 2013 14:59:55
Eccentricity: 0.0008767
inclination: 93.9740°
perigee height: 444 km
apogee height: 456 km
right ascension of ascending node: 349.6995°
argument of perigee: 131.3062°
revolutions per day: 15.38646895
mean anomaly at epoch: 290.6981°
orbit number at epoch: 56936

The dashed part of the orbit path shows where the satellite is in the earth's shadow,  

Developed and maintained by Chris Peat, Heavens-Above GmbH. Please read the updated FAQ before sending e-mail. Imprint. DLR